Date,TemperatureHighF,TemperatureAvgF,TemperatureLowF,DewpointHighF,DewpointAvgF,DewpointLowF,HumidityHigh,HumidityAvg,HumidityLow,PressureMaxIn,PressureMinIn,WindSpeedMaxMPH,WindSpeedAvgMPH,GustSpeedMaxMPH,PrecipitationSumIn
2013-1-1,28.0,13.7,5.1,17.8,7.5,0.0,84,76,61,30.71,30.58,4,1,7,0.00
2013-1-2,27.6,17.8,2.3,17.1,10.8,-3.3,83,74,62,30.66,30.54,4,1,6,0.00
2013-1-3,31.9,13.7,2.7,18.9,6.8,-2.6,83,75,50,30.59,30.50,4,1,5,0.01
2013-1-4,30.9,16.3,7.5,20.9,10.0,2.6,84,76,64,30.63,30.48,4,1,5,0.00
2013-1-5,33.8,21.4,13.3,26.3,16.5,9.1,93,81,67,30.49,30.33,3,0,3,0.00
2013-1-6,33.7,31.6,28.6,29.4,27.9,25.5,88,86,84,30.33,30.25,5,2,7,0.13
2013-1-7,37.1,30.9,28.3,33.9,27.6,25.2,94,87,85,30.39,30.32,5,2,8,0.06
2013-1-8,40.9,33.3,26.9,32.9,28.9,23.3,90,84,71,30.41,30.27,3,1,4,0.01
2013-1-9,44.6,34.3,26.5,32.4,27.6,21.7,86,77,58,30.04,29.91,8,2,13,0.08
2013-1-10,31.2,25.3,21.9,23.0,19.5,17.0,84,79,69,30.14,29.99,9,2,14,0.03
2013-1-11,29.3,23.7,8.2,23.9,17.6,3.3,84,78,50,30.33,30.15,13,3,21,0.01
2013-1-12,15.8,3.3,-4.4,8.3,-2.3,-10.0,81,77,70,30.58,30.36,2,0,4,0.00
2013-1-13,14.5,0.0,-5.8,6.5,-5.8,-11.7,80,76,69,30.73,30.62,3,0,3,0.00
2013-1-14,20.8,4.6,-2.9,10.3,-1.7,-8.6,81,75,60,30.86,30.76,3,0,4,0.00
2013-1-15,27.1,10.1,2.5,15.0,3.8,-2.8,83,76,57,30.98,30.83,3,0,4,0.00
2013-1-16,29.6,10.7,2.2,18.3,4.6,-3.2,83,76,58,30.99,30.84,3,1,4,0.00
2013-1-17,32.3,11.7,2.8,19.4,5.9,-2.2,84,78,57,30.85,30.68,3,0,3,0.01
2013-1-18,31.5,11.7,1.9,19.9,5.8,-3.1,85,77,58,30.74,30.64,4,0,4,0.01
2013-1-19,33.0,8.6,0.2,19.4,2.7,-5.0,83,77,55,30.76,30.64,3,0,3,0.00
2013-1-20,27.6,6.9,0.0,16.2,1.4,-5.5,82,78,60,30.74,30.64,2,0,4,0.00
2013-1-21,34.0,13.3,-0.2,17.7,6.2,-5.4,82,74,48,30.68,30.52,3,0,4,0.00
2013-1-22,32.5,19.0,5.6,19.8,11.9,0.5,83,74,54,30.54,30.30,4,1,4,0.00
2013-1-23,49.7,39.6,26.6,33.4,26.1,20.4,88,61,33,30.27,30.03,19,4,22,0.15
2013-1-24,42.6,35.3,29.5,36.8,32.0,26.4,90,88,79,30.30,30.18,3,0,3,0.00
2013-1-25,37.8,35.6,32.9,35.1,32.9,30.3,90,90,90,30.26,30.08,3,0,4,0.14
2013-1-26,39.6,34.3,29.6,35.0,27.8,21.2,91,78,53,30.07,29.99,9,3,12,0.10
2013-1-27,36.5,28.5,21.2,24.2,20.6,17.4,86,73,52,30.22,30.11,6,2,11,0.01
2013-1-28,35.0,32.0,28.9,27.9,25.5,22.9,82,77,68,30.30,30.17,8,5,15,0.01
2013-1-29,42.9,35.5,29.8,30.3,27.5,25.6,87,73,57,30.52,30.30,14,6,20,0.00
2013-1-30,44.0,31.5,24.1,31.3,26.3,20.6,94,81,59,30.60,30.51,3,1,4,0.00
2013-1-31,41.6,27.9,21.5,31.9,23.6,18.0,89,84,66,30.53,30.42,3,0,5,0.01
2013-2-1,45.4,29.1,19.7,32.1,23.3,15.9,88,80,57,30.50,30.41,3,1,4,0.00
2013-2-2,40.0,28.9,20.4,31.0,23.7,16.6,87,81,67,30.52,30.43,3,0,3,0.01
2013-2-3,45.2,29.5,18.4,30.9,23.2,14.6,87,78,54,30.47,30.34,3,0,5,0.00
2013-2-4,45.4,33.2,24.4,30.8,26.4,20.8,86,77,54,30.36,30.13,3,0,3,0.00
2013-2-5,47.0,36.8,27.4,32.4,27.8,23.5,86,71,41,30.17,30.04,8,2,14,0.00
2013-2-6,43.3,34.5,20.5,30.3,25.8,16.7,87,71,56,30.26,30.06,9,3,10,0.01
2013-2-7,37.2,31.2,25.0,28.0,24.3,20.0,86,76,51,30.07,29.99,4,1,9,0.13
2013-2-8,38.0,26.7,16.6,21.6,16.1,10.0,86,67,32,30.24,30.08,15,4,21,0.01
2013-2-9,43.3,28.8,17.6,25.7,19.6,13.0,84,70,41,30.28,30.21,9,4,11,0.00
2013-2-10,45.2,31.8,22.3,26.1,21.3,18.4,86,68,36,30.34,30.24,6,1,8,0.00
2013-2-11,51.8,31.5,16.9,29.3,20.7,12.6,84,67,32,30.40,30.32,7,1,8,0.00
2013-2-12,47.3,33.5,22.6,29.8,25.6,18.5,88,74,47,30.53,30.45,6,2,8,0.01
2013-2-13,52.2,36.5,25.7,34.0,28.4,22.1,87,74,41,30.54,30.42,6,2,8,0.00
2013-2-14,50.1,35.0,24.4,32.6,27.1,20.8,88,75,47,30.58,30.49,6,1,8,0.01
2013-2-15,52.8,34.8,23.0,32.6,25.9,19.4,88,72,41,30.57,30.39,6,1,8,0.00
2013-2-16,55.0,36.9,23.4,33.2,25.4,19.8,87,66,31,30.43,30.18,6,2,10,0.01
2013-2-17,42.8,30.2,18.9,22.8,19.0,13.6,84,65,35,30.24,30.14,6,1,8,0.00
2013-2-18,45.4,31.5,21.1,27.5,20.0,13.2,84,66,31,30.15,29.88,9,2,13,0.00
2013-2-19,32.8,28.5,23.2,26.6,23.6,19.6,87,82,72,29.93,29.67,10,2,14,0.09
2013-2-20,39.2,28.1,13.6,24.9,19.2,9.1,86,70,50,30.18,30.02,9,2,12,0.10
2013-2-21,38.7,30.1,18.4,25.0,21.5,14.1,86,71,51,30.31,30.17,8,2,11,0.00
2013-2-22,48.0,34.5,26.8,32.4,26.6,21.5,86,74,46,30.32,30.02,9,3,15,0.15
2013-2-23,34.1,29.3,23.1,24.4,21.5,17.9,85,73,59,30.44,30.12,9,4,14,0.07
2013-2-24,41.0,27.2,15.7,24.2,17.9,11.2,84,70,35,30.54,30.36,5,1,8,0.00
2013-2-25,40.9,34.0,26.9,28.9,22.8,16.8,85,65,39,30.37,30.27,13,5,25,0.02
2013-2-26,40.5,29.1,18.9,23.6,18.9,14.5,84,67,42,30.47,30.37,8,2,10,0.00
2013-2-27,48.7,32.8,19.8,27.2,20.8,14.8,83,64,26,30.49,30.40,5,1,8,0.00
2013-2-28,49.8,40.2,33.3,39.6,34.3,29.4,88,80,66,30.55,30.42,4,1,7,0.02
2013-3-1,56.1,38.2,30.1,40.9,31.3,25.3,90,79,31,30.59,30.44,4,1,6,0.01
2013-3-2,56.8,39.5,28.1,38.1,29.1,24.5,89,70,38,30.43,30.19,8,1,10,0.00
2013-3-3,50.3,40.6,30.0,33.9,29.6,24.3,87,67,41,30.18,30.05,7,2,10,0.01
2013-3-4,53.1,35.8,21.3,34.9,25.2,16.1,82,67,44,30.20,30.02,7,2,9,0.00
2013-3-5,45.6,41.4,36.8,35.5,28.1,19.8,83,61,37,29.99,29.68,14,5,20,0.00
2013-3-6,40.3,34.7,27.2,30.0,26.3,20.8,83,72,49,30.00,29.55,7,3,16,0.09
2013-3-7,41.9,33.1,26.3,27.0,22.9,16.1,86,68,36,30.07,30.00,8,2,11,0.01
2013-3-8,47.1,33.5,21.0,26.1,19.9,10.5,85,61,23,30.17,30.00,7,1,11,0.00
2013-3-9,54.0,43.8,30.6,23.9,20.3,14.9,73,42,23,30.50,30.39,5,1,12,0.00
2013-3-10,58.4,38.9,22.5,29.5,22.2,16.4,86,57,20,30.56,30.41,5,1,6,0.00
2013-3-11,61.6,43.5,27.1,38.2,30.1,22.9,86,62,35,30.45,30.24,6,1,8,0.00
2013-3-12,64.4,44.6,28.1,38.9,28.6,11.0,89,61,13,30.28,30.17,4,1,9,0.00
2013-3-13,65.2,44.8,30.5,36.8,31.9,26.8,88,65,31,30.28,30.16,4,1,5,0.00
2013-3-14,64.1,46.8,34.4,36.4,31.4,26.9,84,60,28,30.20,30.14,8,1,10,0.00
2013-3-15,60.8,45.3,33.7,36.3,28.6,18.2,81,56,21,30.22,30.11,8,2,14,0.00
2013-3-16,54.5,39.7,28.5,35.8,28.8,20.7,88,68,27,30.20,30.06,11,4,19,0.00
2013-3-17,48.5,38.7,31.3,29.7,22.3,17.0,77,54,30,30.21,30.10,11,5,19,0.00
2013-3-18,54.2,36.7,21.6,28.2,22.5,17.2,85,60,28,30.27,30.12,6,1,7,0.00
2013-3-19,55.2,43.0,31.4,37.2,31.2,24.4,77,64,42,30.15,29.91,10,3,11,0.00
2013-3-20,50.5,43.1,33.4,40.6,35.1,23.6,86,74,57,30.05,29.79,11,4,18,0.18
2013-3-21,42.1,33.1,26.6,22.3,19.2,15.5,73,57,38,30.30,30.13,9,4,13,0.00
2013-3-22,40.8,31.2,21.6,22.1,17.0,13.1,78,57,36,30.35,30.26,8,4,12,0.00
2013-3-23,50.3,32.3,16.6,23.4,15.7,9.4,82,55,25,30.39,30.23,8,2,11,0.00
2013-3-24,57.2,39.9,23.8,29.3,22.9,12.9,74,52,32,30.28,30.06,5,1,10,0.00
2013-3-25,59.0,43.9,29.2,35.1,29.1,24.5,84,59,33,30.06,29.85,7,1,9,0.00
2013-3-26,52.4,44.0,37.8,36.7,34.7,33.2,85,71,50,29.95,29.90,8,2,8,0.02
2013-3-27,57.6,44.9,32.9,42.1,33.6,27.0,90,68,33,29.96,29.90,11,2,13,0.01
2013-3-28,56.1,45.6,33.6,44.1,35.8,30.1,89,70,43,30.10,29.97,13,2,16,0.01
2013-3-29,64.3,45.8,30.6,39.1,32.5,27.3,89,65,27,30.23,30.12,5,1,9,0.00
2013-3-30,70.3,50.6,31.4,40.2,32.8,26.3,89,57,21,30.19,29.98,11,2,13,0.00
2013-3-31,54.2,49.9,46.5,42.2,38.6,36.0,79,66,54,29.98,29.88,9,4,12,0.00
2013-4-1,49.6,42.8,38.6,40.5,37.1,34.4,86,80,69,30.17,29.97,6,3,11,0.87
2013-4-2,55.1,43.6,33.2,42.8,37.2,29.8,89,79,60,30.26,30.14,4,1,7,0.02
2013-4-3,62.2,45.5,31.9,46.2,37.0,29.0,90,75,39,30.22,30.01,5,1,8,0.00
2013-4-4,59.3,50.7,42.9,42.4,39.4,36.8,86,66,45,29.96,29.81,11,3,13,0.03
2013-4-5,55.4,45.9,40.0,39.6,36.6,32.8,87,72,46,30.04,29.96,7,2,13,0.07
2013-4-6,55.1,44.5,39.8,37.8,35.4,29.5,87,72,39,30.04,29.97,8,3,16,0.09
2013-4-7,47.1,41.4,33.3,38.0,34.0,29.6,89,76,57,29.93,29.77,10,4,20,0.23
2013-4-8,47.0,36.5,27.6,28.9,25.2,21.3,83,65,41,30.25,29.86,12,5,18,0.04
2013-4-9,60.1,42.7,26.5,37.2,27.2,17.6,87,59,20,30.36,30.28,11,3,13,0.01
2013-4-10,62.9,47.1,33.6,43.8,36.8,29.6,88,69,45,30.32,30.14,16,4,19,0.00
2013-4-11,58.7,42.2,26.7,33.9,25.9,14.5,87,59,18,30.23,30.06,9,2,12,0.00
2013-4-12,65.2,45.4,27.7,34.9,28.0,13.5,87,58,14,30.09,29.86,7,2,12,0.00
2013-4-13,48.9,43.3,35.0,35.3,25.4,20.1,69,50,34,30.01,29.85,16,8,22,0.00
2013-4-14,45.7,34.6,23.9,25.0,20.7,15.0,81,59,31,30.05,29.87,11,3,16,0.00
2013-4-15,41.7,34.1,29.4,26.2,23.6,17.8,79,66,40,30.07,29.88,15,4,20,0.02
2013-4-16,43.7,35.0,28.8,30.6,24.9,19.3,82,67,54,30.34,30.14,11,4,15,0.03
2013-4-17,52.3,38.1,24.2,27.1,21.6,13.1,83,56,22,30.48,30.38,11,3,19,0.02
2013-4-18,61.9,44.0,26.7,36.2,29.3,22.5,85,59,33,30.46,30.33,8,2,9,0.00
2013-4-19,55.9,46.8,36.1,40.3,35.6,31.4,83,66,43,30.34,30.19,13,5,17,0.02
2013-4-20,63.9,45.5,27.8,34.3,29.3,24.2,87,58,26,30.32,30.16,10,2,14,0.00
2013-4-21,65.9,48.3,32.1,37.4,32.3,23.2,84,58,27,30.22,30.13,15,4,18,0.00
2013-4-22,59.0,45.9,30.5,37.9,28.0,14.4,89,55,21,30.28,30.17,11,4,15,0.00
2013-4-23,64.9,46.9,27.0,27.2,17.5,-1.9,71,36,7,30.30,30.04,10,3,12,0.00
2013-4-24,65.3,49.2,28.6,28.7,20.6,13.9,71,36,14,30.16,30.00,14,5,18,0.00
2013-4-25,73.3,50.8,27.7,37.0,25.8,16.9,76,45,12,30.10,30.03,9,2,13,0.00
2013-4-26,76.5,56.7,34.7,41.5,33.7,15.7,86,50,10,30.22,30.14,9,2,12,0.00
2013-4-27,75.3,56.9,35.5,39.5,30.0,19.5,78,44,13,30.25,30.12,12,2,15,0.00
2013-4-28,68.0,56.3,40.0,35.5,30.6,24.7,64,39,22,30.14,30.04,11,4,18,0.00
2013-4-29,60.6,51.5,43.8,41.7,33.6,22.9,74,52,32,30.08,29.96,13,6,17,0.00
2013-4-30,58.5,45.0,29.4,30.3,20.7,2.1,85,46,12,30.25,29.99,15,5,18,0.00
2013-5-1,63.6,54.0,35.3,37.0,21.8,10.0,67,31,13,30.45,30.39,12,7,16,0.00
2013-5-2,73.2,52.6,30.2,36.2,19.5,7.1,61,32,8,30.47,30.20,10,3,15,0.00
2013-5-3,75.1,61.5,40.6,34.6,24.6,15.0,59,28,12,30.21,29.97,13,5,18,0.00
2013-5-4,66.7,55.7,41.1,37.5,28.0,18.5,54,36,16,30.04,29.75,16,7,22,0.00
2013-5-5,71.6,54.5,38.8,44.5,35.7,30.6,84,53,25,29.75,29.63,13,5,16,0.21
2013-5-6,70.8,56.7,42.3,46.8,42.5,35.8,86,63,29,29.84,29.72,14,3,22,0.09
2013-5-7,64.8,53.9,47.5,49.8,46.5,43.8,88,77,55,29.95,29.86,12,4,15,0.13
2013-5-8,68.7,54.4,46.3,50.6,45.8,42.4,89,75,41,30.10,29.95,14,2,18,0.24
2013-5-9,74.0,65.0,44.7,50.9,45.1,36.0,90,52,26,30.14,30.06,6,2,10,0.01
2013-5-10,79.5,62.8,43.2,49.4,43.4,37.0,88,55,23,30.18,30.06,6,1,9,0.00
2013-5-11,82.1,65.8,48.0,56.1,47.6,36.6,88,57,21,30.14,29.98,8,2,11,0.00
2013-5-12,81.3,65.7,48.2,53.5,45.4,36.6,86,54,22,30.05,29.91,6,2,14,0.00
2013-5-13,73.6,59.8,44.3,46.4,39.8,33.0,78,50,30,30.02,29.94,11,3,16,0.00
2013-5-14,71.7,56.3,40.0,43.3,35.7,27.3,85,52,23,30.04,29.94,10,4,15,0.00
2013-5-15,66.7,52.8,41.8,42.8,37.7,33.7,78,59,31,30.00,29.91,11,3,18,0.00
2013-5-16,60.7,49.2,42.3,47.0,39.0,34.9,83,69,40,29.98,29.85,9,2,11,0.08
2013-5-17,60.1,49.4,40.9,37.6,33.7,27.6,77,57,30,30.03,29.93,11,4,14,0.00
2013-5-18,58.6,46.2,32.2,42.2,34.4,28.5,88,66,39,30.23,30.07,14,3,18,0.00
2013-5-19,65.2,48.8,31.4,39.0,32.5,26.7,88,59,24,30.34,30.20,9,2,10,0.00
2013-5-20,72.3,55.1,35.3,40.8,32.8,9.7,85,50,9,30.24,29.92,6,2,9,0.00
2013-5-21,54.6,46.2,33.2,42.1,32.1,18.7,80,60,27,29.95,29.73,11,4,22,0.01
2013-5-22,49.4,37.8,28.6,30.9,23.8,20.4,72,58,39,30.09,30.01,11,4,17,0.01
2013-5-23,54.1,43.3,32.2,32.5,29.0,23.2,86,60,33,30.04,29.99,10,3,16,0.01
2013-5-24,60.7,52.2,40.5,35.0,30.6,22.8,70,45,27,30.06,29.96,11,5,16,0.00
2013-5-25,66.3,50.3,30.9,37.2,29.2,16.6,85,51,15,30.03,29.90,8,2,13,0.00
2013-5-26,59.8,50.5,42.9,42.4,36.5,33.7,79,60,40,30.02,29.94,11,3,14,0.04
2013-5-27,59.7,52.1,44.2,46.3,43.1,40.0,85,72,55,29.95,29.83,7,3,17,0.32
2013-5-28,64.1,52.9,43.9,43.3,39.1,33.4,87,63,33,29.94,29.80,7,3,13,0.11
2013-5-29,61.9,53.0,45.2,41.9,36.8,31.9,80,56,37,29.93,29.73,10,5,20,0.04
2013-5-30,64.0,49.5,32.8,35.4,29.1,19.1,86,52,18,30.13,29.99,9,3,12,0.00
2013-5-31,72.4,53.4,32.5,39.6,32.7,24.0,86,52,19,30.23,30.12,6,2,12,0.00
2013-6-1,76.9,60.9,43.1,45.9,36.5,30.0,77,45,19,30.16,29.91,10,3,15,0.00
2013-6-2,74.8,59.4,40.2,45.2,37.0,24.6,83,49,19,29.92,29.80,10,3,14,0.00
2013-6-3,78.7,61.7,40.2,43.4,36.4,22.7,82,44,13,29.93,29.84,7,2,10,0.00
2013-6-4,83.5,67.2,46.0,46.9,39.4,28.4,77,41,14,29.94,29.83,6,2,10,0.00
2013-6-5,86.2,70.4,48.3,47.9,40.5,30.0,68,37,14,29.95,29.83,7,2,10,0.00
2013-6-6,87.1,68.8,48.1,51.0,41.6,20.7,75,44,9,29.90,29.81,9,2,12,0.00
2013-6-7,85.1,69.2,52.3,53.2,47.8,31.8,82,51,18,29.94,29.84,9,2,13,0.00
2013-6-8,87.7,70.0,49.4,50.5,41.7,27.8,82,43,13,29.94,29.83,7,2,11,0.00
2013-6-9,87.5,72.7,54.6,54.4,45.8,34.4,74,42,19,29.85,29.65,9,3,12,0.00
2013-6-10,78.4,65.6,51.3,47.2,38.3,22.0,70,41,13,29.72,29.63,14,4,15,0.00
2013-6-11,68.3,57.2,47.7,43.0,36.1,20.3,71,47,17,29.95,29.78,14,5,20,0.00
2013-6-12,64.8,51.5,37.9,38.7,31.9,22.1,80,52,20,30.05,29.99,11,4,16,0.00
2013-6-13,60.1,49.5,34.7,38.0,32.8,28.7,85,56,31,30.22,30.08,12,4,17,0.00
2013-6-14,70.1,52.3,31.5,39.2,30.2,12.7,86,51,11,30.24,29.95,6,1,10,0.00
2013-6-15,78.0,60.0,37.4,42.2,34.1,26.0,73,42,15,29.95,29.82,10,2,17,0.00
2013-6-16,76.8,63.0,48.0,49.3,40.1,28.5,78,48,17,29.98,29.90,8,2,16,0.00
2013-6-17,74.5,59.8,43.6,46.9,40.0,35.6,77,51,25,30.01,29.83,10,3,14,0.00
2013-6-18,64.0,53.4,46.3,42.2,38.6,29.9,77,59,31,29.90,29.79,12,4,16,0.07
2013-6-19,53.5,45.5,40.2,43.1,37.4,33.4,85,74,61,30.12,29.92,9,3,15,0.24
2013-6-20,62.3,48.7,33.6,41.9,35.4,29.9,88,63,37,30.13,30.02,13,3,16,0.01
2013-6-21,68.9,50.8,33.9,41.3,34.4,27.6,88,59,22,30.13,30.04,9,2,14,0.00
2013-6-22,74.9,58.6,39.2,46.6,39.8,34.9,85,54,26,30.08,29.85,8,2,10,0.01
2013-6-23,69.3,59.8,53.2,52.6,45.9,40.9,79,61,37,29.83,29.59,11,2,13,0.02
2013-6-24,56.2,52.8,48.6,47.8,45.3,42.4,86,76,65,29.76,29.62,5,2,9,0.10
2013-6-25,62.4,57.7,50.8,53.9,49.8,47.4,88,75,60,29.86,29.78,7,3,12,0.03
2013-6-26,73.4,60.9,48.8,56.3,49.6,44.8,89,69,40,29.98,29.89,9,2,12,0.00
2013-6-27,84.1,65.4,45.1,57.4,49.1,42.1,91,61,28,30.08,30.01,9,2,13,0.00
2013-6-28,88.8,71.4,52.2,61.2,52.0,38.2,88,56,17,30.08,29.90,8,2,12,0.00
2013-6-29,86.4,73.6,58.6,57.2,50.3,36.8,78,48,19,29.96,29.84,10,3,15,0.00
2013-6-30,92.2,74.0,53.5,60.5,51.2,43.7,81,50,19,29.90,29.72,8,2,12,0.00
2013-7-1,91.8,76.9,61.6,64.5,54.6,39.0,77,50,16,29.86,29.77,11,2,17,0.00
2013-7-2,95.9,77.7,59.0,66.6,56.2,42.4,82,52,17,29.92,29.83,10,2,15,0.04
2013-7-3,92.2,78.4,61.8,66.5,56.0,47.6,77,49,22,29.93,29.78,12,3,17,0.00
2013-7-4,83.1,70.7,57.5,51.8,45.6,38.6,63,43,21,29.89,29.71,11,4,14,0.00
2013-7-5,82.4,66.6,52.4,50.9,42.9,32.6,68,46,18,29.79,29.67,9,4,12,0.00
2013-7-6,84.6,66.6,51.7,52.4,45.0,36.6,73,49,23,29.76,29.63,12,2,15,0.00
2013-7-7,83.1,69.5,50.8,56.3,48.0,42.2,74,48,27,29.77,29.66,9,3,14,0.00
2013-7-8,85.5,67.8,51.9,55.8,46.5,30.3,73,50,14,29.88,29.81,9,2,9,0.00
2013-7-9,87.7,70.3,51.5,56.0,43.5,13.3,78,45,7,29.99,29.89,12,2,16,0.00
2013-7-10,85.3,70.6,52.7,56.5,46.9,26.9,79,48,12,29.95,29.74,8,2,12,0.00
2013-7-11,82.0,68.2,50.7,55.8,45.2,29.3,75,48,15,29.82,29.71,11,3,15,0.00
2013-7-12,79.0,63.9,47.4,50.0,39.9,26.3,71,45,15,29.88,29.79,11,3,15,0.00
2013-7-13,81.8,64.9,45.0,54.2,43.0,36.4,75,48,21,29.97,29.85,12,2,13,0.00
2013-7-14,82.7,69.1,49.3,53.9,42.0,32.1,67,40,17,29.99,29.81,6,2,10,0.00
2013-7-15,84.5,76.6,59.0,56.5,46.7,30.6,70,38,16,29.84,29.65,6,2,9,0.00
2013-7-16,83.0,70.8,58.7,51.4,38.8,15.4,63,35,8,29.82,29.70,12,3,17,0.00
2013-7-17,81.0,65.6,46.0,56.0,41.3,34.1,74,45,20,30.04,29.90,6,2,9,0.00
2013-7-18,87.7,71.2,51.7,55.9,44.4,30.8,70,42,14,30.05,29.87,9,2,12,0.00
2013-7-19,90.7,82.0,68.3,57.8,45.6,34.9,43,28,16,29.93,29.76,11,4,15,0.00
2013-7-20,92.2,74.6,54.6,56.1,45.4,28.9,68,40,12,29.84,29.71,10,2,18,0.00
2013-7-21,93.5,75.6,52.5,58.8,44.6,19.6,66,39,7,29.78,29.68,9,3,14,0.00
2013-7-22,91.8,74.0,53.2,58.4,42.9,21.7,65,37,8,29.84,29.75,9,2,14,0.00
2013-7-23,91.3,80.3,60.4,57.4,41.7,30.0,55,28,12,29.90,29.79,12,4,17,0.00
2013-7-24,82.8,70.2,56.7,63.3,49.0,41.9,62,48,25,29.92,29.85,5,1,9,0.00
2013-7-25,89.5,75.6,57.3,59.4,48.6,38.7,63,41,18,29.95,29.81,5,1,9,0.00
2013-7-26,86.4,78.7,61.6,63.6,54.0,41.9,69,44,26,29.98,29.85,9,4,14,0.00
2013-7-27,85.6,78.2,63.9,59.4,46.8,34.9,58,35,19,29.97,29.78,10,4,13,0.00
2013-7-28,82.0,66.4,49.0,46.3,35.2,14.2,63,35,8,29.84,29.75,10,3,14,0.00
2013-7-29,82.8,67.3,48.7,51.2,39.8,30.1,66,40,15,29.91,29.78,10,3,14,0.00
2013-7-30,80.4,64.5,47.1,52.6,40.7,29.9,68,45,16,30.03,29.94,8,2,14,0.00
2013-7-31,77.6,66.9,55.8,53.1,45.0,40.4,63,46,28,30.01,29.84,12,2,12,0.02
2013-8-1,71.7,64.4,53.3,50.5,41.3,30.1,77,45,24,29.99,29.90,12,7,19,0.00
2013-8-2,75.5,58.1,39.3,47.7,38.0,26.1,86,54,17,30.06,29.95,8,2,13,0.00
2013-8-3,79.1,64.7,45.3,48.2,40.8,26.7,76,46,15,30.00,29.85,5,1,10,0.00
2013-8-4,82.7,69.5,54.6,54.4,43.7,31.0,65,42,16,29.94,29.80,6,2,9,0.00
2013-8-5,84.8,75.6,54.4,54.7,46.2,23.7,68,38,11,29.93,29.80,9,3,14,0.00
2013-8-6,84.7,69.4,50.9,55.2,45.9,28.4,70,46,13,29.93,29.78,7,2,14,0.00
2013-8-7,76.3,66.4,59.4,54.4,49.2,43.7,81,55,32,29.92,29.83,10,3,14,0.08
2013-8-8,74.5,61.0,46.1,53.9,47.6,41.3,84,64,36,29.96,29.86,12,3,13,0.00
2013-8-9,72.4,58.7,45.2,51.8,45.5,39.7,84,64,33,29.92,29.85,7,1,9,0.02
2013-8-10,72.1,60.2,46.7,53.4,45.9,38.1,90,64,31,29.99,29.92,7,2,9,0.01
2013-8-11,77.7,65.3,46.3,52.3,44.8,35.8,84,53,23,30.03,29.89,9,2,12,0.00
2013-8-12,80.0,61.6,46.0,55.0,45.0,33.0,87,58,19,29.97,29.87,10,2,10,0.77
2013-8-13,82.7,63.2,43.2,55.3,46.0,37.1,91,60,20,30.06,29.91,8,2,9,0.17
2013-8-14,84.7,67.0,49.1,56.5,47.6,37.0,84,55,19,29.95,29.81,10,2,10,0.00
2013-8-15,85.6,66.1,46.7,53.5,44.5,35.1,78,50,17,29.92,29.82,10,2,15,0.00
2013-8-16,84.5,68.2,51.6,55.2,50.1,42.5,86,56,23,29.93,29.85,10,2,14,0.00
2013-8-17,86.3,69.1,53.3,59.7,51.6,40.9,85,58,21,29.96,29.82,10,2,14,0.00
2013-8-18,87.0,70.2,52.0,57.3,49.5,38.6,83,53,19,29.99,29.85,10,2,11,0.00
2013-8-19,90.2,73.0,52.9,55.3,46.2,35.6,76,44,15,29.95,29.83,9,2,16,0.00
2013-8-20,83.9,74.8,52.1,57.7,49.2,39.0,80,43,21,29.91,29.79,5,2,7,0.00
2013-8-21,82.2,70.4,55.5,60.2,43.5,31.3,64,39,24,29.88,29.76,10,2,15,0.00
2013-8-22,73.8,59.4,48.7,56.1,49.3,41.2,87,70,38,29.95,29.82,13,2,15,0.12
2013-8-23,79.0,62.2,42.8,54.8,44.7,33.7,90,59,20,29.97,29.79,7,2,12,0.01
2013-8-24,76.5,61.8,49.1,55.1,48.4,42.5,84,64,30,29.82,29.71,7,1,9,0.00
2013-8-25,70.5,58.7,51.9,56.2,48.9,44.1,84,71,40,29.88,29.80,13,3,20,0.18
2013-8-26,73.2,60.0,46.8,52.1,45.6,40.0,90,64,31,29.95,29.90,9,2,14,0.01
2013-8-27,80.2,61.4,42.8,51.3,40.0,20.7,88,55,13,29.93,29.74,11,2,16,0.00
2013-8-28,81.0,64.5,44.3,48.3,41.0,31.5,81,48,17,29.85,29.79,12,3,15,0.00
2013-8-29,79.1,65.1,51.6,50.1,44.5,41.0,71,50,28,29.98,29.86,7,2,13,0.00
2013-8-30,81.6,65.1,48.2,55.6,47.8,36.8,87,59,21,30.06,29.92,7,2,12,0.00
2013-8-31,85.1,65.9,46.7,55.0,45.0,27.7,85,54,16,29.97,29.77,10,2,12,0.00
2013-9-1,85.7,65.6,44.9,48.5,36.1,16.6,66,40,8,29.87,29.72,11,3,17,0.00
2013-9-2,78.0,63.1,46.3,51.4,41.6,34.1,76,49,21,29.85,29.75,11,2,13,0.00
2013-9-3,77.6,61.4,43.4,48.9,41.4,29.9,87,54,19,29.92,29.84,11,3,15,0.00
2013-9-4,78.5,61.1,41.9,49.1,41.1,18.9,86,54,12,29.98,29.87,11,3,15,0.00
2013-9-5,70.0,55.7,44.1,51.7,44.7,39.9,87,68,38,30.09,29.87,10,3,16,0.10
2013-9-6,74.0,56.8,39.8,50.4,42.6,36.2,92,63,28,30.17,30.02,8,2,10,0.00
2013-9-7,80.2,63.3,44.1,52.3,43.7,32.5,87,54,18,30.04,29.86,7,1,11,0.00
2013-9-8,81.6,66.1,48.1,55.3,44.5,21.5,78,50,11,29.96,29.84,11,2,15,0.00
2013-9-9,82.9,65.0,46.8,50.0,40.8,20.2,75,44,10,29.95,29.79,7,1,9,0.00
2013-9-10,83.1,64.6,47.2,55.0,40.9,33.7,68,45,20,29.90,29.78,5,1,8,0.00
2013-9-11,88.5,68.4,47.7,52.8,39.1,30.4,68,39,13,29.94,29.83,5,1,7,0.00
2013-9-12,85.3,77.0,59.3,53.6,47.4,42.5,65,36,24,29.89,29.77,8,3,11,0.00
2013-9-13,86.1,72.2,55.5,53.1,45.8,37.6,70,42,19,29.82,29.66,9,2,14,0.00
2013-9-14,84.3,67.3,47.3,52.5,41.6,32.5,64,41,19,29.77,29.62,8,2,12,0.00
2013-9-15,79.9,65.5,47.1,51.1,37.5,15.1,78,43,9,29.74,29.64,17,5,29,0.00
2013-9-16,75.7,59.8,44.0,49.8,43.1,33.2,87,58,23,29.86,29.75,8,2,13,0.00
2013-9-17,59.0,52.9,46.4,47.4,42.4,36.7,84,68,56,29.98,29.71,12,5,20,0.06
2013-9-18,63.2,48.0,33.6,43.0,35.7,25.6,89,66,24,30.12,30.01,7,1,9,0.00
2013-9-19,74.2,50.2,34.7,45.8,34.4,24.8,89,60,16,30.07,29.84,5,1,8,0.00
2013-9-20,74.9,51.2,35.5,45.6,31.2,9.5,85,53,8,29.84,29.62,15,3,24,0.08
2013-9-21,53.9,48.6,45.1,46.6,43.5,40.5,89,83,61,29.82,29.65,5,1,10,0.17
2013-9-22,57.8,48.5,40.6,43.8,40.1,36.7,88,74,54,29.96,29.86,7,2,11,0.01
2013-9-23,66.8,55.9,46.6,48.4,44.2,37.2,89,68,34,30.01,29.90,9,3,13,0.00
2013-9-24,55.1,49.2,42.0,42.9,39.2,36.9,85,69,52,29.93,29.84,9,4,14,0.17
2013-9-25,49.3,41.2,36.7,36.7,32.8,30.3,84,73,51,30.01,29.85,10,4,16,0.06
2013-9-26,55.0,41.0,30.1,34.7,30.4,26.6,88,69,35,30.16,30.03,11,2,16,0.01
2013-9-27,62.2,44.8,29.2,39.4,31.7,24.5,88,64,25,30.25,30.15,5,1,10,0.00
2013-9-28,66.2,52.6,40.3,41.3,35.0,30.7,75,53,33,30.13,29.80,8,2,17,0.01
2013-9-29,59.0,54.1,50.9,48.8,44.9,38.2,83,71,48,29.77,29.69,10,4,25,0.61
2013-9-30,56.2,49.1,40.2,47.5,39.6,33.8,87,71,46,30.01,29.69,8,3,15,0.41
2013-10-1,56.1,44.3,35.2,35.8,32.3,29.0,86,65,36,30.17,30.01,11,2,11,0.00
2013-10-2,53.0,40.3,27.6,35.0,29.0,21.1,89,67,33,30.19,30.05,11,3,19,0.00
2013-10-3,54.4,41.7,30.1,33.4,28.6,24.5,87,62,32,30.41,30.18,10,3,14,0.01
2013-10-4,59.7,42.8,28.9,33.3,27.7,22.8,84,59,25,30.49,30.37,9,2,12,0.00
2013-10-5,66.9,44.7,26.9,34.2,27.5,21.9,83,56,21,30.47,30.30,4,1,7,0.00
2013-10-6,71.8,48.9,29.3,36.9,28.1,23.3,82,51,17,30.30,30.08,7,1,10,0.00
2013-10-7,59.8,44.4,34.9,35.9,30.4,26.0,80,61,31,30.12,30.02,12,2,15,0.00
2013-10-8,56.6,40.0,27.5,36.1,30.0,23.9,87,70,43,30.15,29.95,9,2,13,0.00
2013-10-9,52.5,42.7,35.7,32.9,29.3,25.7,81,60,40,29.97,29.89,12,5,17,0.00
2013-10-10,59.8,44.6,30.6,35.2,31.1,25.0,85,62,29,30.05,29.93,8,2,17,0.00
2013-10-11,58.2,41.0,26.5,38.1,29.3,22.6,88,67,31,30.17,30.07,7,1,12,0.00
2013-10-12,56.1,38.2,26.3,37.4,28.7,19.2,84,69,44,30.15,29.99,11,2,13,0.01
2013-10-13,53.6,41.2,30.4,33.6,29.3,25.9,83,64,40,30.27,30.16,7,2,11,0.00
2013-10-14,57.8,40.1,25.7,33.3,27.4,21.8,86,64,28,30.41,30.29,7,2,9,0.00
2013-10-15,59.0,40.9,25.5,32.2,26.3,21.3,85,60,26,30.40,30.24,8,2,12,0.00
2013-10-16,66.0,43.3,25.4,34.1,24.4,19.5,82,54,19,30.27,30.17,6,1,10,0.00
2013-10-17,64.6,44.0,28.2,37.0,29.3,23.2,83,59,30,30.25,30.14,5,1,8,0.00
2013-10-18,66.0,44.2,27.1,37.6,28.1,22.3,83,58,20,30.30,30.18,4,1,7,0.00
2013-10-19,70.0,44.9,27.1,36.7,28.5,22.5,84,58,22,30.29,30.17,3,1,5,0.00
2013-10-20,70.3,46.7,28.7,39.7,28.5,23.3,81,55,18,30.22,30.09,4,1,6,0.00
2013-10-21,70.3,46.9,30.2,38.2,29.8,24.5,79,56,21,30.21,30.08,4,1,7,0.00
2013-10-22,70.3,47.0,30.6,39.4,30.8,25.8,84,58,21,30.20,30.06,4,1,8,0.00
2013-10-23,70.1,44.4,28.9,38.9,28.2,23.6,85,58,18,30.14,30.03,4,1,5,0.00
2013-10-24,69.9,46.1,28.7,38.9,29.0,22.7,81,56,19,30.17,30.06,3,0,5,0.00
2013-10-25,67.9,44.1,28.8,38.6,28.3,23.7,84,58,19,30.29,30.17,2,0,5,0.00
2013-10-26,68.3,43.9,27.0,38.3,27.9,21.5,85,58,17,30.37,30.15,4,1,6,0.00
2013-10-27,58.0,40.0,28.4,35.1,28.0,18.1,81,65,21,30.15,29.72,20,4,23,0.00
2013-10-28,40.8,38.6,35.9,33.8,29.3,23.4,82,69,59,29.87,29.66,14,6,18,0.02
2013-10-29,49.1,35.4,22.9,31.0,23.2,17.7,81,63,40,30.11,29.93,5,1,7,0.00
2013-10-30,55.5,38.2,25.3,35.2,28.5,20.9,86,70,44,30.27,30.16,5,1,9,0.00
2013-10-31,62.1,42.0,26.9,38.6,30.7,23.0,87,67,39,30.36,30.25,3,1,7,0.00
2013-11-1,59.4,39.5,26.7,39.4,31.1,23.4,89,74,42,30.34,30.14,5,1,7,0.01
2013-11-2,49.5,38.2,30.9,40.1,31.4,26.1,88,77,55,30.15,29.98,11,3,15,0.10
2013-11-3,42.8,34.0,27.3,28.7,25.1,22.4,84,71,47,30.21,30.16,9,2,13,0.00
2013-11-4,47.1,32.9,20.9,29.5,24.2,16.8,87,72,45,30.32,30.20,8,2,12,0.01
2013-11-5,45.6,37.0,26.9,40.9,32.7,22.7,87,84,82,30.37,30.32,5,0,6,0.04
2013-11-6,57.3,44.3,36.5,41.9,37.9,33.6,90,80,51,30.41,30.24,5,1,7,0.00
2013-11-7,56.6,48.1,40.4,41.7,38.6,33.8,87,71,45,30.20,30.02,9,3,24,0.06
2013-11-8,51.7,38.9,28.7,37.0,31.1,23.7,88,75,43,30.17,30.07,3,1,6,0.00
2013-11-9,57.7,37.5,24.3,36.1,27.8,20.2,85,70,39,30.24,30.14,3,0,4,0.00
2013-11-10,59.3,40.2,27.5,38.9,30.7,24.1,88,72,35,30.23,30.15,3,0,6,0.01
2013-11-11,62.7,43.7,29.3,34.5,25.2,16.5,76,53,18,30.27,30.16,9,1,10,0.00
2013-11-12,62.1,51.8,43.1,41.0,30.4,22.2,66,45,23,30.31,30.22,6,1,8,0.00
2013-11-13,59.9,46.4,33.1,43.3,34.2,21.1,87,66,24,30.38,30.29,4,1,7,0.00
2013-11-14,53.7,36.6,24.4,31.5,23.0,18.2,80,60,28,30.28,30.09,11,3,17,0.00
2013-11-15,45.1,33.8,22.7,29.8,24.0,18.6,85,69,46,30.09,29.83,11,2,13,0.00
2013-11-16,44.6,38.4,33.7,34.8,29.7,24.2,81,71,57,29.94,29.72,11,5,17,0.02
2013-11-17,49.3,34.0,25.3,33.2,26.7,21.4,88,75,45,30.17,29.98,4,1,6,0.00
2013-11-18,44.4,35.5,26.6,35.6,29.1,22.7,87,78,60,30.17,30.03,2,0,4,0.06
2013-11-19,50.2,42.0,37.9,41.6,37.4,34.7,89,84,71,30.02,29.87,6,1,9,0.07
2013-11-20,42.2,39.4,32.8,39.1,33.0,19.7,89,78,58,30.12,29.88,11,2,15,0.03
2013-11-21,42.3,31.1,21.0,12.5,4.0,-3.0,51,33,16,30.57,30.21,13,4,16,0.00
2013-11-22,48.7,33.1,17.9,15.4,8.2,0.9,64,38,17,30.63,30.47,7,2,12,0.00
2013-11-23,54.1,33.0,18.9,22.0,13.7,9.7,71,49,18,30.48,30.28,5,1,8,0.00
2013-11-24,48.9,29.1,16.2,23.5,15.1,10.5,80,59,23,30.44,30.35,4,1,7,0.00
2013-11-25,51.9,29.8,17.4,24.1,15.5,10.5,81,59,19,30.54,30.44,4,1,6,0.00
2013-11-26,48.8,32.1,21.6,25.7,19.8,14.3,77,62,35,30.44,30.24,3,0,4,0.00
2013-11-27,50.7,33.6,25.0,30.0,22.9,19.7,81,67,36,30.24,30.06,4,0,5,0.00
2013-11-28,55.3,34.2,22.6,29.4,23.5,18.2,86,68,31,30.30,30.13,3,0,5,0.00
2013-11-29,51.4,32.9,20.9,29.5,23.7,16.5,85,71,40,30.43,30.30,4,1,7,0.00
2013-11-30,53.9,39.4,27.2,35.6,30.0,22.9,85,70,47,30.46,30.37,4,1,6,0.00
2013-12-1,55.4,40.3,29.9,39.0,32.1,26.2,88,74,50,30.46,30.20,7,1,11,0.00
2013-12-2,45.8,39.7,28.6,41.2,31.6,18.7,85,73,60,30.20,29.85,11,5,21,0.22
2013-12-3,32.4,24.8,16.1,20.2,14.3,5.5,83,65,47,30.21,29.95,13,3,24,0.00
2013-12-4,24.9,14.5,6.1,8.8,4.8,0.4,77,66,43,30.38,30.21,6,1,24,0.00
2013-12-5,25.1,13.2,2.0,11.4,4.8,-3.8,87,69,49,30.42,30.28,3,1,24,0.00
2013-12-6,25.9,22.0,14.0,20.0,15.6,5.4,84,76,59,30.28,29.90,5,1,24,0.00
2013-12-7,23.8,10.2,-7.8,19.3,2.8,-14.7,83,72,61,30.51,29.89,6,1,8,0.00
2013-12-8,8.9,-4.5,-12.5,2.3,-11.1,-19.6,77,72,68,30.93,30.51,3,0,4,0.00
2013-12-9,15.4,1.7,-8.8,6.4,-5.1,-15.5,86,72,65,31.01,30.87,4,1,5,0.00
2013-12-10,22.6,9.2,-0.2,13.0,2.7,-6.2,79,75,63,30.88,30.68,4,0,4,0.00
2013-12-11,26.8,12.9,4.1,17.6,7.0,-1.5,83,77,67,30.71,30.60,3,0,4,0.04
2013-12-12,29.8,16.6,6.5,20.9,10.8,1.1,83,77,67,30.60,30.45,3,0,4,0.03
2013-12-13,39.2,29.4,20.6,29.8,23.4,16.5,85,78,65,30.58,30.48,4,1,5,0.12
2013-12-14,30.6,22.0,17.1,27.1,18.0,12.7,88,85,82,30.74,30.63,3,0,3,0.00
2013-12-15,33.8,20.3,15.2,26.6,16.0,10.7,87,83,74,30.76,30.64,2,0,3,0.00
2013-12-16,38.6,22.1,13.1,27.6,16.7,8.6,86,80,63,30.73,30.59,3,1,4,0.00
2013-12-17,40.9,28.6,14.5,27.5,21.2,10.0,86,74,56,30.54,30.38,4,1,4,0.00
2013-12-18,39.7,25.7,15.1,27.7,19.5,10.8,85,78,60,30.36,30.03,6,1,9,0.00
2013-12-19,33.5,27.4,16.7,24.6,14.9,6.5,86,61,36,30.24,30.05,12,3,14,0.00
2013-12-20,39.8,23.9,11.3,36.8,15.7,3.7,89,71,48,30.32,30.15,6,1,11,0.05
2013-12-21,47.0,39.9,29.3,35.5,32.9,25.4,87,76,61,30.24,30.13,9,4,13,0.01
2013-12-22,51.6,36.4,27.9,38.1,29.8,24.4,88,78,52,30.47,30.29,5,2,10,0.00
2013-12-23,43.7,33.9,25.2,38.3,29.1,21.9,89,83,70,30.58,30.50,5,1,7,0.01
2013-12-24,42.0,32.8,25.4,36.6,28.5,22.1,90,84,77,30.60,30.51,7,2,8,0.01
2013-12-25,33.9,24.7,19.4,30.8,21.2,15.4,89,86,84,30.69,30.58,2,0,0,0.01
2013-12-26,44.5,27.3,17.5,30.8,21.1,13.2,87,78,50,30.65,30.50,4,1,6,0.01
2013-12-27,35.2,26.3,18.8,28.7,21.6,14.9,86,82,74,30.49,30.37,4,0,8,0.00
2013-12-28,46.8,28.8,18.5,30.8,17.8,13.1,86,68,26,30.56,30.43,6,1,9,0.01
2013-12-29,39.6,25.9,16.6,23.6,16.3,10.6,80,68,41,30.58,30.48,4,1,6,0.00
2013-12-30,41.5,28.4,19.4,24.6,19.0,13.9,81,69,40,30.51,30.40,4,0,5,0.00
2013-12-31,49.7,33.3,26.2,25.6,22.2,18.3,81,66,30,30.45,30.35,3,0,4,0.00
2014-1-1,49.0,30.8,20.4,27.4,20.7,15.8,84,69,32,30.50,30.39,4,1,5,0.00
2014-1-2,48.5,31.1,20.7,28.3,22.5,16.6,85,72,43,30.46,30.31,3,1,6,0.00